Belize, Belize

11:44 AM CST on April 19, 2018 (GMT -0600)
Philip S W Goldson International

Weather History for MZBZ - June, 2013

Change the Weather History Date:

Wednesday, June 19, 2013

  Actual Average Record
Temperature  
Mean Temperature 83 °F -  
Max Temperature 87 °F 88 °F 91 °F (1998)
Min Temperature 79 °F 76 °F 71 °F (2016)
Cooling Degree Days 18    
Growing Degree Days 33 (Base 50)    
Moisture  
Dew Point 77 °F    
Average Humidity 80    
Maximum Humidity 89    
Minimum Humidity 69    
Precipitation  
Precipitation 0.01 in 0.33 in - ()
Sea Level Pressure  
Sea Level Pressure 29.87 in    
Wind  
Wind Speed 11 mph ()    
Max Wind Speed 16 mph    
Max Gust Speed 23 mph    
Visibility 8.2 miles    
Events      
Averages and records for this station are not official NWS values.
T = Trace of Precipitation, MM = Missing Value Source: Averaged Metar Reports

Daily Weather History Graph

Daily Weather History Graph

Search for Another Location

Airport or City:

Astronomy

Jun. 19, 2013 Rise Set
Actual Time 5:19 AM CST 6:30 PM CST
Civil Twilight 4:55 AM CST 6:54 PM CST
Nautical Twilight 4:26 AM CST 7:22 PM CST
Astronomical Twilight 3:57 AM CST 7:52 PM CST
Moon 2:43 PM CST 1:37 AM CST
Length of Visible Light 13h 58m
Length of Day
13h 10m
Waxing Gibbous, 81% of the Moon is Illuminated
Jun 19
Waxing Gibbous
Jun 23
Full
Jun 29
Last Quarter
Jul 8
New
Jul 15
First Quarter

Hourly Weather History & Observations

Time (CST) Temp. Heat Index Dew Point Humidity Pressure Visibility Wind Dir Wind Speed Gust Speed Precip Events Conditions
12:00 AM 80 °F - 76 °F 83% 29.88 in 12 mi East 13.8 mph - -   Mostly Cloudy
3:00 AM 81 °F - 76 °F 82% 29.85 in 12 mi East 11.5 mph - -   Mostly Cloudy
5:00 AM 80.6 °F 87.1 °F 77.0 °F 89% 29.86 in 6.2 mi ESE 11.5 mph - N/A   Mostly Cloudy
6:00 AM 80 °F - 76 °F 84% 29.88 in 12 mi East 9.2 mph - -   Mostly Cloudy
6:00 AM 80.6 °F 86.2 °F 75.2 °F 84% 29.86 in 6.2 mi East 9.2 mph - N/A   Mostly Cloudy
7:00 AM 82.4 °F 90.9 °F 77.0 °F 84% 29.89 in 6.2 mi East 9.2 mph - N/A   Mostly Cloudy
8:00 AM 82.4 °F 90.9 °F 77.0 °F 84% 29.89 in 6.2 mi East 11.5 mph 23.0 mph N/A   Mostly Cloudy
9:00 AM 81 °F - 74 °F 72% 29.91 in 12 mi East 10.4 mph - -   Mostly Cloudy
9:00 AM 80.6 °F 85.4 °F 73.4 °F 79% 29.91 in 6.2 mi East 10.4 mph - N/A   Mostly Cloudy
10:00 AM 80.6 °F 86.2 °F 75.2 °F 84% 29.90 in 6.2 mi East 11.5 mph - N/A   Mostly Cloudy
11:00 AM 84.2 °F 98.3 °F 80.6 °F 89% 29.89 in 6.2 mi East 13.8 mph - N/A   Mostly Cloudy
12:00 PM 86 °F - 78 °F 71% 29.88 in 12 mi East 16.1 mph - -   Partly Cloudy
12:00 PM 86.0 °F 99.3 °F 78.8 °F 79% 29.87 in 6.2 mi East 16.1 mph - N/A   Mostly Cloudy
1:00 PM 86.0 °F 99.3 °F 78.8 °F 79% 29.86 in 6.2 mi East 16.1 mph - N/A   Mostly Cloudy
2:00 PM 86.0 °F 96.9 °F 77.0 °F 74% 29.83 in 6.2 mi East 16.1 mph - N/A   Mostly Cloudy
3:00 PM 87 °F - 78 °F 69% 29.84 in 12 mi East 12.7 mph - -   Mostly Cloudy
3:00 PM 86.0 °F 99.3 °F 78.8 °F 79% 29.83 in 6.2 mi East 12.7 mph - N/A   Mostly Cloudy
4:00 PM 86.0 °F 96.9 °F 77.0 °F 74% 29.83 in 6.2 mi East 15.0 mph - N/A   Mostly Cloudy
5:00 PM 84.2 °F 96.1 °F 78.8 °F 84% 29.83 in 6.2 mi East 11.5 mph - N/A   Mostly Cloudy
6:00 PM 82 °F - 75 °F 74% 29.86 in 12 mi East 9.2 mph - -   Partly Cloudy
6:00 PM 82.4 °F 89.5 °F 75.2 °F 79% 29.85 in 6.2 mi East 9.2 mph - N/A   Mostly Cloudy
9:00 PM 82 °F - 77 °F 81% 29.91 in 12 mi East 10.4 mph - -   Mostly Cloudy
9:00 PM - - - N/A% - 6.2 mi East 13.8 mph - N/A   Scattered Clouds